Location: Artiguedieu
(43.5000°N, 0.5454°E)
Time: 21:10:31
(UTC+00:00)

Vanguard 1 - Pass Details

Date: 02 August 2021
Orbit: 652 x 3831 km, 34.3° (Epoch: 19 September)

Event Time Altitude Azimuth Distance (km) Brightness Sun altitude
Rises 08:53:07 0° 204° (SSW) 2,955 12.5 42.3°
Reaches altitude 10° 08:56:56 10° 168° (SSE) 2,089 12.2 43.0°
Maximum altitude 08:58:29 11° 148° (SSE) 2,053 12.5 43.3°
Drops below altitude 10° 09:00:07 10° 128° (SE) 2,250 12.9 43.5°
Sets 09:04:46 0° 96° (E) 3,587 13.7 44.3°
